Location: Buch
(50.1863°N, 11.0141°E)
Time: 10:45:48
(UTC+00:00)

AQUARIUS - Pass Details

Date: 18 January 2020
Orbit: 651 x 652 km, 98.0° (Epoch: 16 February)

Event Time Altitude Azimuth Distance (km) Brightness Sun altitude
Rises 06:16:48 0° 10° (N) 2,986 7.4 -8.0°
Reaches altitude 10° 06:19:03 10° 6° (N) 2,070 6.6 -7.7°
Maximum altitude 06:23:26 53° 290° (WNW) 806 4.3 -7.0°
Drops below altitude 10° 06:27:48 10° 214° (SW) 2,054 6.6 -6.4°
Sets 06:30:02 0° 210° (SSW) 2,960 7.5 -6.1°
